Tracking 32941 objects as of 15-Jan-2026
HD Live streaming from Space Station
objects crossing your sky now

CZ-6A DEB

Track CZ-6A DEB now!
10-day predictions


NORAD ID: 55216
Int'l Code: 2022-151WH
Perigee: 640.0 km
Apogee: 750.8 km
Inclination: 98.6 °
Period: 98.5 minutes
Semi major axis: 7066 km
RCS: Unknown
Launch date: November 11, 2022
Source: People's Republic of China (PRC)
Launch site: Taiyaun Space Center, China (TSC)

Note: This is SATELLITE DEBRIS
Your satellite tracking list
Your tracking list is empty




NASA's NSSDC Master Catalog

Two Line Element Set (TLE):
1 55216U 22151WH  26015.09968531  .00005049  00000-0  98401-3 0  9998
2 55216  98.6185  63.2755 0078425  61.6027 299.3049 14.61526445162029
Source of the keplerian elements: AFSPC